{"data":{"norad_id":39504,"intl_designator":"2014-004A","name":"TDRS 12","alt_names":[],"object_type":"PAYLOAD","status":"ACTIVE","operator":null,"country":"US","launch_date":"2014-01-24","launch_site_code":"AFETR","launch_vehicle":null,"mission":null,"orbit_class":"UNKNOWN","rcs_meters":7.9433,"size_class":null,"mass_kg":null,"dimensions":null,"purposes":["comms"],"wikipedia_slug":null,"has_3d_model":false,"image_url":null,"decayed_at":null,"tle_current":{"epoch":"2026-09-20T01:19:48.225792Z","epoch_age_seconds":64081,"freshness":"FRESH","line1":"1 39504U 14004A   26263.05541928 -.00000272  00000+0  00000+0 0  9993","line2":"2 39504   4.0772  20.5215 0006582 215.3984 101.9982  1.00268178 45227","mean_motion":1.00268178,"eccentricity":0.0006582,"inclination_deg":4.0772,"raan_deg":20.5215,"arg_perigee_deg":215.3984,"mean_anomaly_deg":101.9982,"bstar":0,"rev_number":4522,"period_min":1436.1485655,"perigee_km":35759.85267239,"apogee_km":35815.359656692,"semimajor_km":42165.743164541,"source":"CELESTRAK","updated_at":"2026-09-20T09:00:35.208795Z"}}}